Regional Weather Roundup
Issued by NWS Grand Forks, ND

Home | Current Version | Previous Version | Text Only | Print | Product List | Glossary On
Versions: 1 2 3 4 5 6 7 8 9 10 11 12 13 14 15 16 17 18 19 20 21 22 23 24 25 26 27 28 29 30 31 32 33 34 35 36 37 38 39 40 41 42 43 44 45 46 47 48 49 50
000
ASUS43 KFGF 270031
RWRFGF
PRAIRIE TO PINES  WEATHER ROUNDUP
NATIONAL WEATHER SERVICE EASTERN NORTH DAKOTA/GRAND FORKS ND
700 PM CDT FRI MAY 26 2017

 **SATELLITE DATA USED TO AUGMENT SKY COVER AT AUTOMATED STATIONS**
 *****  WEATHER ACROSS EASTERN NORTH DAKOTA  *****

CITY           SKY/WX    TMP DP  RH WIND       PRES   REMARKS
GRAND FORKS    FAIR      69  47  45 W14       29.71R
6HR MIN TEMP:  66; 6HR MAX TEMP:  71;

GRAND FRKS AFB PTSUNNY   66  46  47 W10       29.72S
DEVILS LAKE    PTSUNNY   63  42  46 W15       29.75R
6HR MIN TEMP:  59; 6HR MAX TEMP:  65;

FARGO          FAIR      69  43  38 W15       29.75R
WAHPETON ARPT  FAIR      64  39  39 W18       29.78R
$$

 ***** WEATHER ACROSS CENTRAL AND WESTERN NORTH DAKOTA  *****

CITY           SKY/WX    TMP DP  RH WIND       PRES   REMARKS
BISMARCK       PTSUNNY   69  38  32 NW10      29.80S
6HR MIN TEMP:  63; 6HR MAX TEMP:  70;

MINOT          FAIR      68  36  30 W17       29.73S
6HR MIN TEMP:  59; 6HR MAX TEMP:  69;

JAMESTOWN      FAIR      64  43  46 W17G23    29.77S
6HR MIN TEMP:  58; 6HR MAX TEMP:  66;

MINOT AFB      FAIR      65  35  32 NW16      29.71S
GARRISON         N/A     67  34  29 W22       29.76S
WILLISTON      FAIR      69  32  25 W17G25    29.78R
6HR MIN TEMP:  63; 6HR MAX TEMP:  72;

DICKINSON      FAIR      65  30  27 W16       29.81R
6HR MIN TEMP:  60; 6HR MAX TEMP:  68;

HETTINGER      FAIR      65  33  30 NW14      29.86R
6HR MIN TEMP:  61; 6HR MAX TEMP:  68;

$$

 *****  OTHER AIRPORT OBSERVATIONS IN OUR AREA  *****

CITY           SKY/WX    TMP DP  RH WIND       PRES   REMARKS
WALHALLA       NOT AVBL
GRAFTON AIRPOR FAIR      66  45  45 W16G23    29.72R
VALLEY CITY AR CLOUDY    63  43  48 W14G22    29.79R
CANDO          NOT AVBL
CAVALIER APRT  FAIR      64  43  45 W12G20    29.68R
GWINNER        CLEAR     66  41  39 MISG      29.79S
SHEYENNE NWR     N/A     68  43  40 NW12      29.95S
ROLLA          FAIR      63  41  45 W14       29.72R
 ***** THE ABOVE OBSERVATIONS ARE NON NWS ARE NOT QUALITY
       CONTROLLED AND MAY MIS-REPORT RAIN FOR SNOW...
$$

  *****  WEATHER ACROSS NORTHERN MINNESOTA  *****

CITY           SKY/WX    TMP DP  RH WIND       PRES   REMARKS
FLAG ISLAND    FAIR      66  45  45 SW10      29.64R
WARROAD        FAIR      66  46  48 SW12G20   29.68R
ROSEAU         FAIR      66  46  48 SW8       29.68R
HALLOCK        FAIR      68  45  42 W15       29.67S
THF RVR FALLS  FAIR      66  43  43 W15       29.72R
6HR MIN TEMP:  66; 6HR MAX TEMP:  70;

BAUDETTE       PTSUNNY   68  43  40 W13G24    29.67R HAZE
6HR MIN TEMP:  68; 6HR MAX TEMP:  75;

WASKISH        CLOUDY    64  52  63 W12       29.70R
CROOKSTON      FAIR      68  45  42 W16G22    29.72S
STEPHEN NDAWN    N/A     70  45  40 W12         N/A
GREENBUSH NDAW   N/A     64  45  48 W12         N/A
$$
  *****  WEATHER ACROSS CENTRAL AND WEST MINNESOTA  *****

CITY           SKY/WX    TMP DP  RH WIND       PRES   REMARKS
FOSSTON        FAIR      66  43  42 W13G21    29.75R
BEMIDJI        FAIR      67  43  41 W16       29.72R
PARK RAPIDS    LGT RAIN  70  41  34 W17G24    29.73R
6HR MIN TEMP:  69; 6HR MAX TEMP:  74; 6HR PCP: TRACE;

ELBOW LAKE     FAIR      67  44  43 NW15      29.77S
6HR MIN TEMP:  67; 6HR MAX TEMP:  71;

WADENA         FAIR      66  45  45 W10       29.75R
DETROIT LAKES  FAIR      64  41  42 W15       29.77R
MOORHEAD       FAIR      68  39  34 W15       29.76S
FERGUS FALLS   FAIR      66  45  45 NW15G22   29.75R
MORRIS MN      FAIR      70  45  40 NW14      29.77S
STAPLES        FAIR      68  41  37 W14       29.74S
$$
  *****  WEATHER ELSEWHERE ACROSS MINNESOTA  *****

CITY           SKY/WX    TMP DP  RH WIND       PRES   REMARKS
DULUTH         FAIR      63  52  67 E8        29.71S
6HR MIN TEMP:  61; 6HR MAX TEMP:  69;

INTRNTL FALLS  FAIR      71  41  33 W10       29.66R
6HR MIN TEMP:  66; 6HR MAX TEMP:  76; 6HR PCP:  0.02;

ELY            PTSUNNY   61  55  82 SE6       29.72R
CLOQUET        FAIR      61  50  67 E7        29.71R
WHEATON        FAIR      70  39  32 W14       29.79S
BRAINERD       FAIR      71  44  37 SW13      29.73R
6HR MIN TEMP:  70; 6HR MAX TEMP:  75;

HIBBING        FAIR      72  46  39 W9        29.68R
6HR MIN TEMP:  63; 6HR MAX TEMP:  75; 6HR PCP:  0.01;

ALEXANDRIA     FAIR      69  43  38 W13       29.77S
6HR MIN TEMP:  68; 6HR MAX TEMP:  72;

SAINT CLOUD    FAIR      72  48  42 W10       29.74R
6HR MIN TEMP:  71; 6HR MAX TEMP:  76;

MINNEAPOLIS    FAIR      78  49  35 W10       29.72R
6HR MIN TEMP:  72; 6HR MAX TEMP:  80;

$$

  *****  WEATHER ACROSS SOUTH DAKOTA  *****

CITY           SKY/WX    TMP DP  RH WIND       PRES   REMARKS
SIOUX FALLS    FAIR      72  43  35 NW15G23   29.82S
6HR MIN TEMP:  71; 6HR MAX TEMP:  74;

BROOKINGS      FAIR      69  42  37 W12       29.81S
WATERTOWN      FAIR      66  42  41 NW10      29.80S
6HR MIN TEMP:  66; 6HR MAX TEMP:  71;

HURON          FAIR      71  41  33 NW13      29.81R
6HR MIN TEMP:  68; 6HR MAX TEMP:  75;

SISSETON         N/A     70  44  39 NW18      29.78R
ABERDEEN       FAIR      68  39  34 NW9       29.80S
6HR MIN TEMP:  66; 6HR MAX TEMP:  71;

MITCHELL       FAIR      75  38  26 NW12      29.82S
PIERRE         FAIR      70  36  28 NW12      29.83R
6HR MIN TEMP:  67; 6HR MAX TEMP:  73;

MOBRIDGE       FAIR      72  37  28 NW12      29.79R
RAPID CITY     CLOUDY    60  38  43 S8        29.93R
6HR MIN TEMP:  60; 6HR MAX TEMP:  67;

$$

  *****  SOME WEATHER IN NEARBY STATES *****

CITY           SKY/WX    TMP DP  RH WIND       PRES   REMARKS
GLASGOW MT     LGT RAIN  57  41  55 NW26      29.86R
6HR MIN TEMP:  57; 6HR MAX TEMP:  71; 6HR PCP: TRACE;

GREAT FALLS MT CLOUDY    61  33  35 SE5       29.91R
6HR MIN TEMP:  56; 6HR MAX TEMP:  65;

CHEYENNE WY    LGT RAIN  58  47  66 SE10      29.87S
6HR MIN TEMP:  53; 6HR MAX TEMP:  60; 6HR PCP:  0.02;

SCOTTSBLUFF NE FAIR      59  48  67 NE14      29.86F
6HR MIN TEMP:  58; 6HR MAX TEMP:  65; 6HR PCP:  0.04;

OMAHA NE       FAIR      81  49  32 N5        29.80S
6HR MIN TEMP:  75; 6HR MAX TEMP:  81;

DES MOINES IA  FAIR      80  56  43 CALM      29.77R
6HR MIN TEMP:  75; 6HR MAX TEMP:  83;

DAVENPORT IA   CLOUDY    65  60  84 NE7       29.81R
6HR MIN TEMP:  61; 6HR MAX TEMP:  68; 6HR PCP:  0.04;

CHICAGO IL     LGT RAIN  56  53  90 NE13      29.82R FOG
6HR MIN TEMP:  56; 6HR MAX TEMP:  69; 6HR PCP:  0.45;

EAU CLAIRE WI  FAIR      73  55  53 S12       29.75S
6HR MIN TEMP:  71; 6HR MAX TEMP:  74;

LA CROSSE WI   FAIR      72  58  61 S8        29.79S
6HR MIN TEMP:  69; 6HR MAX TEMP:  74;

$$

  *****  SOME NATIONAL WEATHER *****

CITY           SKY/WX    TMP DP  RH WIND       PRES   REMARKS
LA GUARDIA NY  MOCLDY    71  53  52 NW14      29.68R
6HR MIN TEMP:  71; 6HR MAX TEMP:  76;

RALEIGH NC     FAIR      74  57  55 W5        29.91R
6HR MIN TEMP:  74; 6HR MAX TEMP:  81;

ATLANTA GA     FAIR      80  60  50 SW10      29.99R
6HR MIN TEMP:  79; 6HR MAX TEMP:  83;

NEW ORLEANS LA FAIR      82  69  64 S13       29.98S
6HR MIN TEMP:  82; 6HR MAX TEMP:  85;

OKLAHOMA CITY  FAIR      86  66  51 E6        29.75S
6HR MIN TEMP:  85; 6HR MAX TEMP:  89;

ALBUQUERQUE NM FAIR      86   8   5 W23G30    29.89F
6HR MIN TEMP:  75; 6HR MAX TEMP:  86;

SALT LAKE CITY PTSUNNY   66  32  28 N14       29.92R
6HR MIN TEMP:  61; 6HR MAX TEMP:  68;

LOS ANGELES CA FAIR      66  54  65 W15       29.98S
6HR MIN TEMP:  66; 6HR M



USA.gov is the U.S. government's official web portal to all federal, state and local government web resources and services.